| time (UTC) | temp F | wind direction | speed knots | gust knots | rain 1hr in | rain 24hr in | rain mn in | humidity % | barometer mb |
| 20260901054502 | 70 | 248 | 0.0 | 0.0 | 0.00 | 0.03 | 0.02 | 1 | 1016.3 |
| 20260901053103 | 70 | 248 | 0.0 | 0.0 | 0.02 | 0.03 | 0.02 | 1 | 1016.3 |
| 20260901051553 | 70 | 248 | 0.0 | 0.0 | 0.02 | 0.03 | 0.02 | 1 | 1016.3 |
| 20260901050049 | 70 | 248 | 0.0 | 0.0 | 0.02 | 0.03 | 0.02 | 1 | 1016.4 |
| 20260901044543 | 70 | 248 | 0.0 | 0.0 | 0.02 | 0.03 | 0.02 | 1 | 1016.5 |
| 20260901043039 | 70 | 242 | 0.0 | 0.0 | 0.00 | 0.01 | 0.00 | 1 | 1016.7 |
| 20260901041534 | 70 | 241 | 0.0 | 0.0 | 0.00 | 0.01 | 0.00 | 1 | 1017.2 |
| 20260901040031 | 70 | 242 | 0.0 | 0.0 | 0.00 | 0.01 | 0.00 | 1 | 1017.3 |
| 20260901034536 | 70 | 242 | 0.0 | 0.0 | 0.00 | 0.01 | 0.01 | 1 | 1017.3 |
| 20260901033026 | 70 | 242 | 0.0 | 0.0 | 0.00 | 0.01 | 0.01 | 1 | 1017.2 |
| 20260901031530 | 70 | 242 | 0.0 | 0.0 | 0.00 | 0.01 | 0.01 | 1 | 1017.3 |
| 20260901030013 | 70 | 242 | 0.0 | 0.0 | 0.00 | 0.01 | 0.01 | 1 | 1017.4 |
| 20260901024508 | 70 | 242 | 0.0 | 0.0 | 0.00 | 0.01 | 0.01 | 1 | 1017.3 |
| 20260901023003 | 70 | 242 | 0.0 | 0.0 | 0.00 | 0.01 | 0.01 | 1 | 1017.3 |
| 20260901021601 | 70 | 242 | 0.0 | 0.0 | 0.00 | 0.01 | 0.01 | 1 | 1017.5 |
| 20260901020057 | 70 | 242 | 0.0 | 0.0 | 0.00 | 0.01 | 0.01 | 1 | 1017.3 |
| 20260901014551 | 70 | 242 | 0.0 | 0.0 | 0.00 | 0.06 | 0.01 | 1 | 1017.3 |
| 20260901013048 | 70 | 242 | 0.0 | 0.0 | 0.00 | 0.06 | 0.01 | 1 | 1017.4 |
| 20260901011542 | 70 | 242 | 0.0 | 0.0 | 0.00 | 0.06 | 0.01 | 1 | 1017.3 |
| 20260901010041 | 71 | 242 | 0.0 | 0.0 | 0.00 | 0.06 | 0.01 | 1 | 1017.3 |
| 20260901004532 | 71 | 242 | 0.0 | 0.0 | 0.00 | 0.06 | 0.01 | 1 | 1017.3 |
| 20260901003027 | 71 | 242 | 0.0 | 0.0 | 0.00 | 0.06 | 0.01 | 1 | 1017.2 |
| 20260901001523 | 72 | 242 | 0.0 | 0.0 | 0.00 | 0.06 | 0.01 | 1 | 1017.1 |
| 20260901000024 | 72 | 242 | 0.0 | 0.0 | 0.00 | 0.06 | 0.01 | 1 | 1017.0 |
| 20260831234514 | 73 | 242 | 0.0 | 0.0 | 0.00 | 0.06 | 0.01 | 5 | 1016.8 |
| 20260831233010 | 73 | 242 | 0.0 | 0.0 | 0.00 | 0.06 | 0.01 | 20 | 1016.8 |
| 20260831231506 | 74 | 242 | 0.0 | 0.0 | 0.00 | 0.06 | 0.01 | 33 | 1017.0 |
| 20260831230002 | 76 | 243 | 0.0 | 0.0 | 0.00 | 0.06 | 0.01 | 38 | 1017.3 |
| 20260831224558 | 77 | 243 | 0.0 | 0.0 | 0.00 | 0.06 | 0.01 | 41 | 1017.4 |
| 20260831223058 | 78 | 243 | 0.0 | 0.0 | 0.00 | 0.06 | 0.01 | 42 | 1017.5 |
| 20260831221548 | 79 | 243 | 0.0 | 0.0 | 0.00 | 0.06 | 0.01 | 44 | 1017.4 |
| 20260831220046 | 79 | 264 | 0.0 | 0.0 | 0.00 | 0.06 | 0.01 | 36 | 1017.5 |
| 20260831214554 | 78 | 264 | 0.0 | 0.0 | 0.00 | 0.06 | 0.01 | 35 | 1017.6 |
| 20260831213035 | 77 | 264 | 0.0 | 0.0 | 0.00 | 0.06 | 0.01 | 28 | 1018.0 |
| 20260831211534 | 75 | 264 | 0.0 | 0.0 | 0.00 | 0.06 | 0.01 | 29 | 1018.1 |
| 20260831210035 | 74 | 264 | 0.0 | 0.0 | 0.00 | 0.06 | 0.01 | 17 | 1018.1 |
| 20260831204524 | 75 | 264 | 0.0 | 0.0 | 0.00 | 0.06 | 0.01 | 7 | 1018.1 |
| 20260831203017 | 75 | 264 | 0.0 | 0.0 | 0.00 | 0.06 | 0.01 | 22 | 1018.1 |
| 20260831201513 | 75 | 264 | 0.0 | 0.0 | 0.00 | 0.06 | 0.01 | 30 | 1018.4 |
| 20260831200009 | 76 | 264 | 0.0 | 0.0 | 0.00 | 0.06 | 0.01 | 36 | 1018.3 |
| 20260831194504 | 77 | 264 | 0.0 | 0.0 | 0.00 | 0.06 | 0.01 | 43 | 1018.4 |
| 20260831193131 | 77 | 264 | 0.0 | 0.0 | 0.00 | 0.06 | 0.01 | 42 | 1018.6 |
| 20260831191555 | 77 | 264 | 0.0 | 0.0 | 0.00 | 0.06 | 0.01 | 43 | 1018.8 |
| 20260831190053 | 77 | 264 | 0.0 | 0.0 | 0.00 | 0.06 | 0.01 | 45 | 1018.9 |
| 20260831184548 | 78 | 264 | 0.0 | 0.0 | 0.00 | 0.06 | 0.01 | 46 | 1018.9 |
| 20260831183053 | 78 | 264 | 0.0 | 0.0 | 0.00 | 0.06 | 0.01 | 48 | 1018.9 |
| 20260831181550 | 78 | 264 | 0.0 | 0.0 | 0.00 | 0.06 | 0.01 | 48 | 1018.9 |
| 20260831180039 | 79 | 264 | 0.0 | 0.0 | 0.00 | 0.06 | 0.01 | 53 | 1018.9 |
| 20260831174530 | 78 | 264 | 0.0 | 0.9 | 0.00 | 0.06 | 0.01 | 54 | 1019.2 |
| 20260831173027 | 79 | 264 | 0.0 | 0.0 | 0.00 | 0.06 | 0.01 | 54 | 1019.2 |
| 20260831171522 | 79 | 264 | 0.0 | 0.9 | 0.00 | 0.06 | 0.01 | 54 | 1019.1 |
| 20260831170018 | 80 | 263 | 0.0 | 0.9 | 0.00 | 0.06 | 0.01 | 53 | 1019.1 |
| 20260831164512 | 80 | 266 | 0.9 | 2.6 | 0.00 | 0.06 | 0.01 | 52 | 1019.1 |
| 20260831163008 | 79 | 264 | 0.9 | 2.6 | 0.00 | 0.06 | 0.01 | 49 | 1019.2 |
| 20260831161506 | 78 | 290 | 0.0 | 0.9 | 0.00 | 0.06 | 0.01 | 41 | 1019.3 |
| 20260831160109 | 77 | 267 | 0.0 | 2.6 | 0.00 | 0.06 | 0.01 | 33 | 1019.4 |
| 20260831154609 | 76 | 259 | 0.0 | 1.7 | 0.00 | 0.06 | 0.01 | 27 | 1019.4 |
| 20260831153051 | 74 | 223 | 0.0 | 0.0 | 0.00 | 0.06 | 0.01 | 22 | 1019.4 |
| 20260831151549 | 74 | 151 | 0.0 | 0.0 | 0.00 | 0.06 | 0.01 | 18 | 1019.4 |
| 20260831150049 | 73 | 150 | 0.0 | 0.0 | 0.00 | 0.06 | 0.01 | 19 | 1019.6 |
| 20260831144538 | 73 | 238 | 0.0 | 0.9 | 0.00 | 0.06 | 0.01 | 17 | 1019.7 |
| 20260831143035 | 72 | 235 | 0.0 | 0.0 | 0.00 | 0.06 | 0.01 | 1 | 1019.8 |
| 20260831141531 | 73 | 267 | 0.0 | 0.0 | 0.01 | 0.06 | 0.01 | 1 | 1019.9 |
| 20260831140023 | 73 | 266 | 0.0 | 0.0 | 0.01 | 0.06 | 0.01 | 1 | 1019.7 |
| 20260831134519 | 72 | 267 | 0.0 | 0.9 | 0.01 | 0.06 | 0.01 | 1 | 1019.6 |
| 20260831133014 | 71 | 167 | 0.0 | 1.7 | 0.01 | 0.06 | 0.01 | 1 | 1019.6 |
| 20260831131509 | 71 | 129 | 0.0 | 0.0 | 0.00 | 0.05 | 0.00 | 1 | 1019.6 |
| 20260831130005 | 71 | 130 | 0.0 | 0.0 | 0.00 | 0.05 | 0.00 | 1 | 1019.6 |
| 20260831124601 | 71 | 122 | 0.0 | 0.0 | 0.00 | 0.05 | 0.00 | 1 | 1019.6 |
| 20260831123056 | 70 | 122 | 0.0 | 0.0 | 0.00 | 0.05 | 0.00 | 1 | 1019.7 |
| 20260831121552 | 70 | 123 | 0.0 | 0.0 | 0.00 | 0.05 | 0.00 | 1 | 1019.5 |
| 20260831120048 | 69 | 122 | 0.0 | 0.0 | 0.00 | 0.05 | 0.00 | 1 | 1019.6 |
| 20260831114543 | 69 | 122 | 0.0 | 0.0 | 0.00 | 0.05 | 0.00 | 1 | 1019.5 |
| 20260831113044 | 68 | 122 | 0.0 | 0.0 | 0.00 | 0.05 | 0.00 | 1 | 1019.3 |
| 20260831111542 | 68 | 122 | 0.0 | 0.0 | 0.00 | 0.05 | 0.00 | 1 | 1019.1 |
| 20260831110033 | 68 | 123 | 0.0 | 0.0 | 0.00 | 0.05 | 0.00 | 1 | 1019.0 |
| 20260831104527 | 68 | 122 | 0.0 | 0.0 | 0.00 | 0.05 | 0.00 | 1 | 1018.9 |
| 20260831103021 | 68 | 123 | 0.0 | 0.0 | 0.00 | 0.05 | 0.00 | 1 | 1018.9 |
| 20260831101517 | 68 | 122 | 0.0 | 0.0 | 0.00 | 0.05 | 0.00 | 1 | 1018.8 |
| 20260831100016 | 68 | 122 | 0.0 | 0.0 | 0.00 | 0.05 | 0.00 | 1 | 1018.5 |
| 20260831094522 | 68 | 122 | 0.0 | 0.0 | 0.00 | 0.05 | 0.00 | 1 | 1018.3 |
| 20260831093009 | 68 | 122 | 0.0 | 0.0 | 0.00 | 0.05 | 0.00 | 1 | 1018.3 |
| 20260831091559 | 69 | 123 | 0.0 | 0.0 | 0.00 | 0.05 | 0.00 | 1 | 1018.2 |
| 20260831090118 | 69 | 122 | 0.0 | 0.0 | 0.00 | 0.05 | 0.00 | 1 | 1018.2 |
| 20260831084550 | 69 | 122 | 0.0 | 0.0 | 0.00 | 0.05 | 0.00 | 1 | 1018.3 |
| 20260831083102 | 69 | 123 | 0.0 | 0.0 | 0.00 | 0.05 | 0.00 | 1 | 1018.2 |
| 20260831081553 | 70 | 122 | 0.0 | 0.0 | 0.00 | 0.05 | 0.00 | 1 | 1018.2 |
| 20260831080107 | 70 | 123 | 0.0 | 0.0 | 0.00 | 0.05 | 0.00 | 1 | 1018.2 |
| 20260831074533 | 70 | 123 | 0.0 | 0.0 | 0.00 | 0.05 | 0.00 | 1 | 1018.3 |
| 20260831073029 | 71 | 122 | 0.0 | 0.0 | 0.00 | 0.05 | 0.00 | 1 | 1018.2 |
| 20260831071540 | 71 | 122 | 0.0 | 0.0 | 0.00 | 0.05 | 0.00 | 1 | 1018.1 |
| 20260831070023 | 70 | 122 | 0.0 | 0.0 | 0.00 | 0.05 | 0.00 | 1 | 1018.2 |
| 20260831064515 | 70 | 123 | 0.0 | 0.0 | 0.00 | 0.05 | 0.00 | 1 | 1018.1 |
| 20260831063013 | 70 | 123 | 0.0 | 0.0 | 0.00 | 0.05 | 0.00 | 1 | 1018.2 |
| 20260831061507 | 70 | 122 | 0.0 | 0.0 | 0.00 | 0.05 | 0.00 | 1 | 1018.4 |
| 20260831060006 | 70 | 122 | 0.0 | 0.0 | 0.00 | 0.05 | 0.00 | 1 | 1018.0 |